�������l�o���
Date,Time,MP-1(��Sv/h),MP-2(��Sv/h),MP-3(��Sv/h),MP-4(��Sv/h),MP-5(��Sv/h),MP-6(��Sv/h),MP-7(��Sv/h),MP-8(��Sv/h),����,����(m/s),���J
2023/04/17,00:00,0.560,0.805,0.490,1.004,0.707,0.321,0.576,0.544,���k��,6.7,��
2023/04/17,00:10,0.558,0.804,0.491,1.004,0.707,0.322,0.574,0.544,���k��,6.8,��
2023/04/17,00:20,0.558,0.802,0.490,1.004,0.708,0.322,0.575,0.545,�k��,7.8,��
2023/04/17,00:30,0.559,0.802,0.492,1.004,0.708,0.321,0.575,0.543,�k��,7.4,��
2023/04/17,00:40,0.559,0.803,0.491,1.003,0.708,0.322,0.575,0.543,�k��,7.5,��
2023/04/17,00:50,0.559,0.805,0.490,1.006,0.707,0.322,0.573,0.546,�k��,5.8,��
2023/04/17,01:00,0.556,0.805,0.489,1.003,0.709,0.321,0.574,0.543,���k��,7.1,��
2023/04/17,01:10,0.559,0.806,0.491,1.006,0.707,0.323,0.573,0.546,�k��,4.3,��
2023/04/17,01:20,0.559,0.804,0.492,1.002,0.707,0.321,0.575,0.542,�k�k��,5.2,��
2023/04/17,01:30,0.558,0.802,0.491,1.005,0.707,0.321,0.574,0.543,�k,3.8,��
2023/04/17,01:40,0.559,0.804,0.491,1.005,0.706,0.321,0.573,0.544,�k�k��,3.6,��
2023/04/17,01:50,0.559,0.802,0.492,1.005,0.709,0.321,0.574,0.543,�k,3.5,��
2023/04/17,02:00,0.558,0.805,0.493,1.005,0.706,0.321,0.574,0.543,�k�k��,3.0,��
2023/04/17,02:10,0.559,0.805,0.490,1.007,0.709,0.322,0.575,0.545,�k,4.7,��
2023/04/17,02:20,0.560,0.803,0.492,1.005,0.709,0.322,0.575,0.545,�k�k��,5.2,��
2023/04/17,02:30,0.559,0.806,0.492,1.004,0.707,0.321,0.574,0.543,�k,5.5,��
2023/04/17,02:40,0.557,0.805,0.490,1.006,0.707,0.322,0.575,0.543,�k,5.8,��
2023/04/17,02:50,0.557,0.804,0.491,1.003,0.709,0.322,0.573,0.543,�k,5.7,��
2023/04/17,03:00,0.558,0.806,0.491,1.007,0.707,0.322,0.573,0.544,�k,7.1,��
2023/04/17,03:10,0.558,0.805,0.491,1.004,0.706,0.321,0.575,0.544,�k,5.5,��
2023/04/17,03:20,0.557,0.802,0.491,1.005,0.706,0.320,0.572,0.544,�k,5.3,��
2023/04/17,03:30,0.558,0.804,0.491,1.006,0.709,0.321,0.574,0.543,�k,6.1,��
2023/04/17,03:40,0.557,0.802,0.490,1.004,0.707,0.320,0.573,0.545,�k,7.0,��
2023/04/17,03:50,0.558,0.805,0.492,1.004,0.707,0.319,0.573,0.543,�k,6.6,��
2023/04/17,04:00,0.558,0.803,0.490,1.004,0.707,0.321,0.574,0.542,�k,7.5,��
2023/04/17,04:10,0.558,0.802,0.491,1.004,0.709,0.321,0.573,0.544,�k,5.9,��
2023/04/17,04:20,0.558,0.805,0.490,1.003,0.705,0.320,0.574,0.543,�k,5.7,��
2023/04/17,04:30,0.558,0.805,0.491,1.006,0.708,0.320,0.574,0.543,�k,6.2,��
2023/04/17,04:40,0.558,0.805,0.490,1.004,0.707,0.321,0.572,0.542,�k�k��,6.2,��
2023/04/17,04:50,0.559,0.802,0.491,1.004,0.709,0.320,0.573,0.542,�k�k��,5.8,��
2023/04/17,05:00,0.557,0.806,0.492,1.005,0.708,0.320,0.573,0.542,�k,6.2,��
2023/04/17,05:10,0.556,0.805,0.491,1.004,0.707,0.321,0.574,0.543,�k,5.6,��
2023/04/17,05:20,0.558,0.805,0.490,1.004,0.705,0.321,0.573,0.542,�k�k��,6.1,��
2023/04/17,05:30,0.558,0.803,0.489,1.006,0.710,0.320,0.573,0.543,�k�k��,4.8,��
2023/04/17,05:40,0.557,0.806,0.490,1.005,0.707,0.320,0.574,0.544,�k�k��,4.1,��
2023/04/17,05:50,0.558,0.803,0.491,1.003,0.707,0.322,0.578,0.543,�k��,5.6,��
2023/04/17,06:00,0.556,0.803,0.491,1.004,0.709,0.320,0.574,0.542,�k��,6.5,��
2023/04/17,06:10,0.559,0.805,0.490,1.006,0.707,0.321,0.574,0.543,�k��,5.9,��
2023/04/17,06:20,0.558,0.805,0.491,1.005,0.709,0.319,0.574,0.545,�k��,4.9,��
2023/04/17,06:30,0.558,0.805,0.492,1.006,0.709,0.320,0.574,0.542,�k�k��,3.3,��
2023/04/17,06:40,0.558,0.804,0.490,1.003,0.707,0.320,0.574,0.544,�k��,3.2,��
2023/04/17,06:50,0.558,0.804,0.491,1.003,0.708,0.321,0.574,0.544,�k�k��,3.4,��
2023/04/17,07:00,0.557,0.803,0.491,1.004,0.707,0.321,0.573,0.544,�k�k��,3.6,��
2023/04/17,07:10,0.558,0.805,0.490,1.004,0.708,0.320,0.573,0.542,�k,3.7,��
2023/04/17,07:20,0.557,0.802,0.491,1.003,0.711,0.321,0.573,0.543,�k�k��,4.4,��
2023/04/17,07:30,0.558,0.803,0.490,1.006,0.709,0.320,0.574,0.543,�k��,4.5,��
2023/04/17,07:40,0.557,0.805,0.492,1.005,0.707,0.321,0.573,0.541,�k��,4.4,��
2023/04/17,07:50,0.557,0.805,0.489,1.005,0.709,0.321,0.574,0.544,�k��,6.8,��
2023/04/17,08:00,0.557,0.802,0.489,1.005,0.708,0.321,0.573,0.543,�k��,4.6,��
2023/04/17,08:10,0.556,0.804,0.492,1.006,0.706,0.320,0.573,0.541,�k�k��,4.8,��
2023/04/17,08:20,0.557,0.803,0.490,1.004,0.710,0.320,0.571,0.543,�k�k��,7.4,��
2023/04/17,08:30,0.558,0.804,0.490,1.007,0.707,0.319,0.572,0.542,�k��,7.6,��
2023/04/17,08:40,0.556,0.805,0.490,1.005,0.708,0.319,0.572,0.544,�k��,8.4,��
2023/04/17,08:50,0.557,0.805,0.491,1.005,0.708,0.320,0.573,0.543,�k��,7.4,��
2023/04/17,09:00,0.559,0.804,0.490,1.006,0.709,0.320,0.572,0.542,�k��,6.8,��
2023/04/17,09:10,0.557,0.804,0.490,1.007,0.708,0.321,0.573,0.543,�k��,8.7,��
2023/04/17,09:20,0.559,0.805,0.491,1.008,0.709,0.321,0.572,0.543,�k��,11.3,��
2023/04/17,09:30,0.559,0.806,0.491,1.007,0.709,0.321,0.573,0.542,���k��,8.3,��
2023/04/17,09:40,0.560,0.806,0.493,1.005,0.711,0.320,0.572,0.542,�k��,11.1,��
2023/04/17,09:50,0.559,0.802,0.491,1.006,0.710,0.321,0.572,0.542,�k��,9.3,��
2023/04/17,10:00,0.559,0.801,0.492,1.007,0.709,0.320,0.572,0.542,�k��,9.6,��
2023/04/17,10:10,0.557,0.804,0.491,1.005,0.711,0.319,0.574,0.541,�k��,12.7,��
2023/04/17,10:20,0.560,0.802,0.490,1.009,0.709,0.318,0.573,0.540,���k��,8.6,��
2023/04/17,10:30,0.557,0.802,0.493,1.009,0.708,0.320,0.573,0.542,���k��,7.9,��
2023/04/17,10:40,0.557,0.802,0.490,1.008,0.708,0.320,0.573,0.541,�k��,9.1,��
2023/04/17,10:50,0.557,0.804,0.491,1.009,0.710,0.319,0.572,0.541,�k��,5.9,��
2023/04/17,11:00,0.556,0.803,0.491,1.009,0.709,0.320,0.572,0.541,�k��,10.3,��
2023/04/17,11:10,0.557,0.803,0.490,1.010,0.707,0.319,0.573,0.542,�k��,9.4,��
2023/04/17,11:20,0.558,0.805,0.493,1.007,0.710,0.320,0.572,0.543,�k�k��,7.4,��
2023/04/17,11:30,0.555,0.806,0.491,1.008,0.709,0.319,0.574,0.543,�k��,10.5,��
2023/04/17,11:40,0.557,0.804,0.490,1.009,0.692,0.321,0.571,0.543,�k��,10.8,��
2023/04/17,11:50,0.557,0.807,0.490,1.009,0.693,0.321,0.573,0.543,�k��,9.7,��
2023/04/17,12:00,0.559,0.807,0.490,1.011,0.710,0.319,0.571,0.543,�k��,10.5,��
2023/04/17,12:10,0.559,0.808,0.490,1.009,0.711,0.319,0.571,0.544,�k��,9.8,��
2023/04/17,12:20,0.557,0.808,0.490,1.011,0.711,0.319,0.571,0.542,�k��,8.4,��
2023/04/17,12:30,0.558,0.808,0.493,1.010,0.711,0.320,0.572,0.541,�k�k��,8.8,��
2023/04/17,12:40,0.557,0.808,0.490,1.011,0.712,0.320,0.571,0.543,�k��,14.9,��
2023/04/17,12:50,0.559,0.809,0.492,1.010,0.710,0.321,0.572,0.542,�k�k��,11.4,��
2023/04/17,13:00,0.560,0.809,0.490,1.010,0.711,0.319,0.572,0.543,�k��,12.0,��
2023/04/17,13:10,0.559,0.808,0.493,1.011,0.714,0.319,0.574,0.543,�k��,13.1,��
2023/04/17,13:20,0.558,0.809,0.492,1.010,0.714,0.321,0.573,0.542,�k��,13.0,��
2023/04/17,13:30,0.559,0.808,0.491,1.012,0.713,0.320,0.572,0.543,���k��,13.8,��
2023/04/17,13:40,0.559,0.808,0.490,1.011,0.713,0.321,0.572,0.543,�k��,13.0,��
2023/04/17,13:50,0.560,0.809,0.491,1.013,0.714,0.322,0.573,0.543,���k��,11.3,��
2023/04/17,14:00,0.554,0.808,0.490,1.013,0.714,0.321,0.572,0.543,���k��,10.2,��
2023/04/17,14:10,0.555,0.808,0.492,1.013,0.715,0.320,0.572,0.544,�k��,12.2,��
2023/04/17,14:20,0.560,0.801,0.492,1.012,0.715,0.321,0.572,0.544,�k��,8.8,��
2023/04/17,14:30,0.559,0.808,0.490,1.013,0.713,0.321,0.572,0.544,�k��,11.3,��
2023/04/17,14:40,0.558,0.810,0.492,1.012,0.713,0.321,0.572,0.544,�k��,13.0,��
2023/04/17,14:50,0.559,0.808,0.492,1.014,0.714,0.322,0.573,0.545,�k��,10.0,��
2023/04/17,15:00,0.560,0.811,0.491,1.014,0.715,0.320,0.573,0.544,���k��,10.2,��
2023/04/17,15:10,0.558,0.811,0.491,1.014,0.716,0.320,0.573,0.545,�k��,10.2,��
2023/04/17,15:20,0.560,0.812,0.492,1.012,0.715,0.321,0.572,0.543,�k��,11.3,��
2023/04/17,15:30,0.559,0.813,0.492,1.013,0.714,0.321,0.573,0.546,�k��,10.2,��
2023/04/17,15:40,0.559,0.811,0.491,1.012,0.714,0.322,0.573,0.543,�k��,11.3,��
2023/04/17,15:50,0.559,0.812,0.493,1.010,0.715,0.322,0.574,0.545,�k��,9.2,��
2023/04/17,16:00,0.558,0.812,0.491,1.012,0.714,0.322,0.571,0.546,���k��,7.5,��
2023/04/17,16:10,0.558,0.812,0.492,1.011,0.713,0.322,0.573,0.543,�k��,5.8,��
2023/04/17,16:20,0.558,0.812,0.491,1.011,0.714,0.322,0.571,0.544,�k��,7.6,��
2023/04/17,16:30,0.558,0.811,0.492,1.013,0.714,0.322,0.573,0.545,�k��,9.4,��
2023/04/17,16:40,0.558,0.810,0.493,1.012,0.715,0.322,0.571,0.546,�k��,7.8,��
2023/04/17,16:50,0.558,0.811,0.492,1.012,0.714,0.322,0.573,0.546,�k��,6.7,��
2023/04/17,17:00,0.558,0.814,0.492,1.013,0.714,0.320,0.572,0.546,�k��,8.4,��
2023/04/17,17:10,0.556,0.813,0.492,1.013,0.714,0.321,0.572,0.546,�k�k��,5.1,��
2023/04/17,17:20,0.558,0.813,0.491,1.012,0.714,0.321,0.571,0.546,�k�k��,5.8,��
2023/04/17,17:30,0.558,0.813,0.492,1.012,0.713,0.322,0.571,0.547,�k�k��,4.7,��
2023/04/17,17:40,0.559,0.814,0.492,1.013,0.711,0.321,0.572,0.546,�k�k��,6.0,��
2023/04/17,17:50,0.560,0.813,0.493,1.016,0.715,0.321,0.572,0.545,�k�k��,5.5,��
2023/04/17,18:00,0.562,0.815,0.493,1.014,0.717,0.322,0.573,0.546,�k�k��,6.7,��
2023/04/17,18:10,0.560,0.815,0.494,1.018,0.717,0.322,0.571,0.546,�k�k��,6.1,��
2023/04/17,18:20,0.559,0.815,0.492,1.015,0.718,0.321,0.572,0.546,�k�k��,5.7,��
2023/04/17,18:30,0.559,0.812,0.494,1.016,0.716,0.321,0.572,0.544,�k�k��,5.7,��
2023/04/17,18:40,0.559,0.813,0.493,1.017,0.714,0.322,0.573,0.546,�k�k��,5.6,��
2023/04/17,18:50,0.560,0.812,0.492,1.015,0.717,0.321,0.574,0.544,�k�k��,6.1,��
2023/04/17,19:00,0.559,0.813,0.493,1.016,0.715,0.321,0.571,0.543,�k�k��,6.3,��
2023/04/17,19:10,0.560,0.814,0.492,1.016,0.717,0.321,0.572,0.545,�k�k��,5.6,��
2023/04/17,19:20,0.558,0.813,0.493,1.014,0.716,0.321,0.574,0.545,�k��,5.4,��
2023/04/17,19:30,0.559,0.815,0.493,1.014,0.717,0.322,0.573,0.544,�k��,4.1,��
2023/04/17,19:40,0.558,0.813,0.493,1.016,0.716,0.321,0.574,0.546,���k��,2.0,��
2023/04/17,19:50,0.557,0.811,0.493,1.015,0.715,0.320,0.573,0.543,���k��,2.9,��
2023/04/17,20:00,0.560,0.814,0.492,1.013,0.717,0.321,0.574,0.543,�k��,3.3,��
2023/04/17,20:10,0.558,0.812,0.491,1.017,0.716,0.321,0.572,0.544,�k��,3.5,��
2023/04/17,20:20,0.560,0.811,0.492,1.016,0.715,0.320,0.573,0.544,��,3.0,��
2023/04/17,20:30,0.559,0.813,0.492,1.016,0.718,0.320,0.573,0.545,���k��,2.6,��
2023/04/17,20:40,0.559,0.814,0.492,1.014,0.716,0.321,0.572,0.543,�k��,3.9,��
2023/04/17,20:50,0.558,0.813,0.493,1.015,0.716,0.321,0.573,0.543,���k��,2.5,��
2023/04/17,21:00,0.556,0.814,0.493,1.017,0.717,0.321,0.574,0.544,���k��,1.9,��
2023/04/17,21:10,0.560,0.812,0.493,1.014,0.716,0.320,0.573,0.542,���k��,2.3,��
2023/04/17,21:20,0.558,0.813,0.492,1.017,0.716,0.320,0.573,0.542,���k��,2.3,��
2023/04/17,21:30,0.559,0.812,0.493,1.017,0.717,0.321,0.572,0.542,���k��,2.0,��
2023/04/17,21:40,0.559,0.813,0.492,1.016,0.719,0.320,0.574,0.543,���k��,2.5,��
2023/04/17,21:50,0.557,0.814,0.492,1.014,0.716,0.321,0.573,0.543,���k��,3.1,��
2023/04/17,22:00,0.558,0.811,0.492,1.014,0.716,0.321,0.573,0.544,���k��,4.0,��
2023/04/17,22:10,0.556,0.810,0.492,1.015,0.716,0.320,0.573,0.542,���k��,4.3,��
2023/04/17,22:20,0.556,0.815,0.493,1.016,0.716,0.321,0.573,0.542,���k��,4.6,��
2023/04/17,22:30,0.557,0.812,0.492,1.015,0.716,0.321,0.572,0.543,���k��,4.7,��
2023/04/17,22:40,0.557,0.812,0.492,1.013,0.715,0.320,0.572,0.542,���k��,5.0,��
2023/04/17,22:50,0.555,0.813,0.492,1.016,0.716,0.321,0.572,0.543,���k��,4.6,��
2023/04/17,23:00,0.558,0.811,0.491,1.013,0.717,0.319,0.573,0.543,���k��,3.7,��
2023/04/17,23:10,0.557,0.813,0.492,1.015,0.717,0.320,0.573,0.542,���k��,2.9,��
2023/04/17,23:20,0.559,0.811,0.490,1.015,0.715,0.320,0.573,0.542,��,2.5,��
2023/04/17,23:30,0.555,0.811,0.490,1.016,0.716,0.320,0.573,0.542,���k��,2.2,��
2023/04/17,23:40,0.558,0.813,0.492,1.014,0.715,0.321,0.573,0.543,��,2.9,��
2023/04/17,23:50,0.556,0.813,0.493,1.013,0.715,0.320,0.574,0.544,��,4.1,��
